Погода в Крестовоздвиженке

Россия / Амурская область     49°46′27″N   127°58′10″E
темп.,
°C
ветер,
м/с
пор.,
м/с
влажн.,
%
обл.,
%
осадки,
мм/ч
давл.,
гПа
погр.,
м
11 мая, вт
вт1100:00+6ююв2291100 0.0 101430
03:00+5юв229282 0.0 101421
06:00+5юв23865 0.0 101588
09:00+12юв44585 0.0 1014611
12:00+16юв4442100 0.0 10131280
15:00+18юв4436100 0.0 10111813
18:00+16вюв5740100 0.0 1010633
21:00+12вюв81560100 0.0 1010456
12 мая, ср
ср1200:00+10вюв81570100 0.0 1008494
03:00+10вюв91770100 0.0 1006592
06:00+9вюв101879100 1.8 1002831
09:00+11юв101876100 4.2 10001389
12:00+12юв101672100 0.4 9981417
15:00+15ююз81250100 1.2 9961994
18:00+13ю6959100 0.4 995978
21:00+10юз4873100 0.9 997529
13 мая, чт
чт1300:00+9зюз5883100 1.1 998424
03:00+9зюз61184100 1.3 1000502
06:00+9з61182100 0.1 1002626
09:00+13з786493 0.1 10041199
12:00+16зсз69435 0.0 10051901
15:00+20з69268 0.0 10042673
18:00+20зсз273188 0.0 10042574
21:00+15ююв3343100 0.0 100535
14 мая, пт
пт1400:00+14юз2344100 0.0 100549
03:00+12всв3458100 0.0 100465
06:00+11юв466014 0.0 1003143
09:00+16ю81559100 0.0 10001082
12:00+11зюз91669100 1.9 1000870
15:00+16юз9153869 2.3 9982350
18:00+14зсз715480 0.0 9991571
21:00+10з36583 0.0 1000111
15 мая, сб
сб1500:00+9з613579 0.0 1000560
03:00+8з7136571 0.0 1000918
06:00+8з81275100 0.0 10011140
09:00+8зсз71276100 0.1 10031221
12:00+9зсз71170100 0.1 10041211
15:00+10сз61166100 0.1 10051220
18:00+12сз51063100 0.0 10051031
21:00+11сз41071100 0.0 1006387